Regional Weather Roundup
Issued by NWS

Home | Current Version | Previous Version | Graphics & Text | Print | Product List | Glossary On
Versions: 1 2 3 4 5 6 7 8 9 10 11 12 13 14 15 16 17 18 19 20 21 22 23 24 25 26 27 28 29 30 31 32 33 34 35 36 37 38 39 40 41 42 43 44 45 46 47 48 49 50
000
ASUS43 KDMX 041504
RWRIA

WEATHER ROUNDUP FOR IOWA
NATIONAL WEATHER SERVICE DES MOINES IA
  ISSUED BY NWS QUAD CITIES IA IL
900 AM CST WED MAR 04 2015

NOTE: "FAIR" INDICATES FEW OR NO CLOUDS BELOW 12,000 FEET WITH NO
SIGNIFICANT WEATHER AND/OR OBSTRUCTIONS TO VISIBILITY.

* - THESE STATIONS ARE NOT NWS STATIONS...THUS NOT UNDER NWS
QUALITY CONTROL.  THEY ALSO DO NOT REPORT WEATHER SUCH
AS PRECIPITATION OR FOG.

IAZ001>003-012>014-020>022-031>034-043>046-041600-
   NORTHWEST IOWA

CITY           SKY/WX    TMP DP  RH WIND       PRES   REMARKS
CARROLL *      SUNNY     14   3  62 W10       30.26R WCI   1
CHEROKEE *     SUNNY     10   2  67 CALM      30.24R
DENNISON *     SUNNY     16   5  62 SW5       30.24R WCI   9
LE MARS *      SUNNY     16   9  73 SW8       30.24R WCI   5
ORANGE CITY *  SUNNY     14   5  67 CALM      30.20R
SHELDON *      SUNNY     12   3  67 SW12      30.19S WCI  -2
SIOUX CITY     MOSUNNY   19   7  59 VRB7      30.26R WCI  10
SPENCER        SUNNY     11  -1  58 W9        30.21R WCI  -2
STORM LAKE *   SUNNY     10   0  61 W8        30.22R WCI  -1
$$

IAZ055>058-069>071-079>083-090>094-041600-
   SOUTHWEST IOWA

CITY           SKY/WX    TMP DP  RH WIND       PRES   REMARKS
ATLANTIC *     SUNNY     18   3  53 NW8       30.29R WCI   7
AUDUBON *      SUNNY     16   5  62 NW7       30.27R WCI   6
CLARINDA *     SUNNY     16   9  73 CALM      30.33S
COUNCIL BLFS * SUNNY     19   7  58 NW6       30.28R WCI  11
CRESTON *      SUNNY     16   1  53 N13       30.27R WCI   2
HARLAN *       SUNNY     18   7  62 NW8       30.31R WCI   7
LAMONI         SUNNY     16   2  54 N9        30.27R WCI   4
RED OAK *      MOSUNNY   18   5  57 N5        30.32R WCI  11
SHENANDOAH *   SUNNY     19  10  68 N5        30.33R WCI  13
$$

IAZ047>049-059>061-072>074-084-041600-
   CENTRAL IOWA

CITY           SKY/WX    TMP DP  RH WIND       PRES   REMARKS
AMES           SUNNY     12  -2  53 NW9       30.28R WCI   0
ANKENY *       SUNNY     14  -2  48 NW9       30.31R WCI   2
BOONE *        SUNNY     12  -4  48 NW12G17   30.25R WCI  -2
CHARITON *     MOSUNNY   14   1  57 NW14      30.27R WCI  -1
DES MOINES     PTSUNNY   15  -2  46 NW12      30.29R WCI   2
GRINNELL *     SUNNY     10   0  62 NW18      30.27R WCI  -8
KNOXVILLE *    SUNNY     14  -2  48 NW17      30.27R WCI  -3
MARSHALLTOWN   SUNNY      9  -2  61 NW16      30.25R WCI  -8
NEWTON *       MOSUNNY   12   0  57 NW14      30.28R WCI  -3
PELLA *        SUNNY     14   5  67 NW10G17   30.30R WCI   2
PERRY *          N/A     15   5  64 W7        30.28R WCI   5
$$

IAZ004>006-015-016-023>025-035-036-041600-
   NORTH CENTRAL IOWA

CITY           SKY/WX    TMP DP  RH WIND       PRES   REMARKS
ALGONA *       SUNNY      9 N/A N/A W8        30.23R WCI  -4
CLARION *      SUNNY      9  -2  61 NW12      30.24R WCI  -6
ESTHERVILLE    SUNNY      6  -3  66 W8        30.21R WCI  -7
FORT DODGE *   SUNNY     10  -2  56 NW8       30.25R WCI  -1
MASON CITY     SUNNY      4  -4  69 NW16      30.23R WCI -15
FOREST CITY *  FAIR       9  -6  52 NW12      30.22R WCI  -6
WEBSTER CITY * SUNNY     10  -2  56 NW13      30.24R WCI  -5
IOWA FALLS *   FAIR       8  -2  64 W8        30.24R WCI  -5
$$

IAZ007>011-017>019-026>030-037>042-050>054-066-041600-
   NORTHEAST IOWA

CITY           SKY/WX    TMP DP  RH WIND       PRES   REMARKS
CEDAR RAPIDS   CLOUDY     8  -1  66 NW16      30.22R WCI -10
CHARLES CITY * SUNNY      5  -6  61 NW10G18   30.22R WCI -10
CLINTON *      MOSUNNY   10   0  61 NW16      30.21R WCI  -7
DECORAH *      SUNNY      5  -8  56 NW10      30.17R WCI -10
DUBUQUE        MOSUNNY    7  -2  66 NW16G22   30.15R WCI -11
MONTICELLO *   MOSUNNY    9  -2  61 NW12      30.20R WCI  -6
OELWEIN *      SUNNY      7  -4  61 NW21      30.21R WCI -13
WATERLOO       SUNNY      7  -4  60 NW12      30.23R WCI  -8
$$

IAZ064-065-067-068-078-041600-
   EAST CENTRAL IOWA

CITY           SKY/WX    TMP DP  RH WIND       PRES   REMARKS
DAVENPORT      CLOUDY    10  -1  61 NW18      30.21R WCI  -8
IOWA CITY      SUNNY     10  -1  61 NW16      30.26R WCI  -7
MT. PLEASANT * CLOUDY    14   1  55 NW12      30.25R WCI   0
MUSCATINE *    CLOUDY    14   3  62 NW13      30.27R WCI   0
QUAD CITIES    PTSUNNY   14   1  56 NW15      30.21R WCI  -1
$$

IAZ062-063-075>077-085>089-095>099-041600-
   SOUTHEAST IOWA

CITY           SKY/WX    TMP DP  RH WIND       PRES   REMARKS
BURLINGTON     CLOUDY    14   2  58 N15       30.23R WCI  -1
FAIRFIELD *    CLOUDY    14   0  52 NW16      30.27R WCI  -2
FORT MADISON * PTSUNNY   16   5  62 NW13      30.24R WCI   2
KEOKUK *       CLOUDY    16   5  62 NW13G21   30.24R WCI   2
OSKALOOSA *    FAIR      12   0  59 NW15      30.28R WCI  -4
CENTERVILLE *  FAIR      16   0  48 NW13G20   30.27R WCI   2
OTTUMWA        SUNNY     13   0  56 N18       30.27R WCI  -4
WASHINGTON *   CLOUDY    12   3  67 NW16G24   30.27R WCI  -4
$$

ABBREVIATIONS USED IN REMARKS
   TC - TEMPERATURES IN CELSIUS
  WCI - WIND CHILL INDEX
   HX - HEAT INDEX
  VSB - VISIBILITY
$$



USA.gov is the U.S. government's official web portal to all federal, state and local government web resources and services.